| time (UTC) | temp C | wind direction | speed KPH | gust KPH | rain 1hr cm | rain 24hr cm | rain mn cm | humidity % | barometer mb |
| 20260504000455 | 25 | 358 | 1.6 | 6.4 | 0.00 | 0.00 | 0.00 | 16 | 966.6 |
| 20260503235955 | 26 | 358 | 0.0 | 6.4 | 0.00 | 0.00 | 0.00 | 15 | 966.6 |
| 20260503235455 | 26 | 354 | 3.2 | 8.0 | 0.00 | 0.00 | 0.00 | 16 | 966.7 |
| 20260503235001 | 26 | 354 | 4.8 | 11.3 | 0.00 | 0.00 | 0.00 | 15 | 966.7 |
| 20260503234954 | 26 | 354 | 4.8 | 11.3 | 0.00 | 0.00 | 0.00 | 15 | 966.7 |
| 20260503234621 | 26 | 7 | 4.8 | 9.7 | 0.00 | 0.00 | 0.00 | 15 | 966.6 |
| 20260503233454 | 26 | 10 | 3.2 | 8.0 | 0.00 | 0.00 | 0.00 | 15 | 966.8 |
| 20260503232953 | 26 | 8 | 0.0 | 6.4 | 0.00 | 0.00 | 0.00 | 14 | 966.8 |
| 20260503232455 | 26 | 8 | 3.2 | 11.3 | 0.00 | 0.00 | 0.00 | 14 | 966.8 |
| 20260503231953 | 26 | 8 | 6.4 | 11.3 | 0.00 | 0.00 | 0.00 | 16 | 966.9 |
| 20260503231454 | 26 | 20 | 3.2 | 9.7 | 0.00 | 0.00 | 0.00 | 15 | 966.9 |
| 20260503230953 | 26 | 20 | 6.4 | 11.3 | 0.00 | 0.00 | 0.00 | 15 | 966.9 |
| 20260503230455 | 26 | 0 | 8.0 | 16.1 | 0.00 | 0.00 | 0.00 | 15 | 967.0 |
| 20260503225953 | 26 | 317 | 4.8 | 16.1 | 0.00 | 0.00 | 0.00 | 15 | 967.1 |
| 20260503225453 | 25 | 345 | 8.0 | 16.1 | 0.00 | 0.00 | 0.00 | 17 | 967.2 |
| 20260503224953 | 26 | 17 | 0.0 | 6.4 | 0.00 | 0.00 | 0.00 | 16 | 967.1 |
| 20260503224454 | 26 | 49 | 1.6 | 11.3 | 0.00 | 0.00 | 0.00 | 16 | 967.2 |
| 20260503223951 | 26 | 51 | 6.4 | 17.7 | 0.00 | 0.00 | 0.00 | 16 | 967.4 |
| 20260503223453 | 26 | 347 | 8.0 | 17.7 | 0.00 | 0.00 | 0.00 | 16 | 967.3 |
| 20260503222952 | 26 | 24 | 9.7 | 17.7 | 0.00 | 0.00 | 0.00 | 16 | 967.4 |
| 20260503222453 | 26 | 3 | 6.4 | 16.1 | 0.00 | 0.00 | 0.00 | 16 | 967.5 |
| 20260503221952 | 26 | 333 | 3.2 | 14.5 | 0.00 | 0.00 | 0.00 | 16 | 967.6 |
| 20260503221453 | 26 | 334 | 6.4 | 14.5 | 0.00 | 0.00 | 0.00 | 16 | 967.7 |
| 20260503220951 | 26 | 0 | 8.0 | 16.1 | 0.00 | 0.00 | 0.00 | 17 | 967.8 |
| 20260503220452 | 26 | 350 | 9.7 | 16.1 | 0.00 | 0.00 | 0.00 | 16 | 967.8 |
| 20260503215950 | 26 | 262 | 3.2 | 24.1 | 0.00 | 0.00 | 0.00 | 17 | 967.7 |
| 20260503215453 | 26 | 296 | 4.8 | 24.1 | 0.00 | 0.00 | 0.00 | 16 | 967.9 |
| 20260503214952 | 26 | 310 | 12.9 | 20.9 | 0.00 | 0.00 | 0.00 | 16 | 967.9 |
| 20260503214452 | 26 | 312 | 9.7 | 19.3 | 0.00 | 0.00 | 0.00 | 16 | 968.0 |
| 20260503213950 | 26 | 7 | 9.7 | 19.3 | 0.00 | 0.00 | 0.00 | 16 | 968.1 |
| 20260503213452 | 26 | 329 | 9.7 | 19.3 | 0.00 | 0.00 | 0.00 | 16 | 968.1 |
| 20260503212951 | 26 | 296 | 4.8 | 16.1 | 0.00 | 0.00 | 0.00 | 18 | 968.1 |
| 20260503212451 | 26 | 8 | 4.8 | 16.1 | 0.00 | 0.00 | 0.00 | 17 | 968.2 |
| 20260503211951 | 26 | 0 | 8.0 | 17.7 | 0.00 | 0.00 | 0.00 | 17 | 968.2 |
| 20260503211451 | 26 | 0 | 11.3 | 19.3 | 0.00 | 0.00 | 0.00 | 16 | 968.3 |
| 20260503210949 | 25 | 343 | 9.7 | 22.5 | 0.00 | 0.00 | 0.00 | 16 | 968.5 |
| 20260503210451 | 25 | 337 | 12.9 | 22.5 | 0.00 | 0.00 | 0.00 | 16 | 968.5 |
| 20260503205949 | 25 | 329 | 9.7 | 20.9 | 0.00 | 0.00 | 0.00 | 16 | 968.5 |
| 20260503205459 | 25 | 312 | 8.0 | 20.9 | 0.00 | 0.00 | 0.00 | 16 | 968.8 |
| 20260503205452 | 25 | 337 | 11.3 | 20.9 | 0.00 | 0.00 | 0.00 | 16 | 968.6 |
| 20260503204459 | 26 | 18 | 8.0 | 17.7 | 0.00 | 0.00 | 0.00 | 16 | 968.9 |
| 20260503204452 | 26 | 326 | 12.9 | 20.9 | 0.00 | 0.00 | 0.00 | 17 | 968.8 |
| 20260503203459 | 25 | 0 | 6.4 | 19.3 | 0.00 | 0.00 | 0.00 | 17 | 968.8 |
| 20260503203451 | 26 | 337 | 6.4 | 17.7 | 0.00 | 0.00 | 0.00 | 16 | 968.9 |
| 20260503202450 | 25 | 312 | 8.0 | 19.3 | 0.00 | 0.00 | 0.00 | 17 | 968.9 |
| 20260503201949 | 25 | 42 | 1.6 | 20.9 | 0.00 | 0.00 | 0.00 | 17 | 969.0 |
| 20260503201449 | 25 | 355 | 12.9 | 20.9 | 0.00 | 0.00 | 0.00 | 17 | 969.0 |
| 20260503200948 | 25 | 18 | 6.4 | 16.1 | 0.00 | 0.00 | 0.00 | 17 | 969.0 |
| 20260503200449 | 25 | 344 | 9.7 | 16.1 | 0.00 | 0.00 | 0.00 | 18 | 969.1 |
| 20260503195957 | 25 | 327 | 9.7 | 22.5 | 0.00 | 0.00 | 0.00 | 17 | 969.2 |
| 20260503195949 | 25 | 338 | 9.7 | 17.7 | 0.00 | 0.00 | 0.00 | 18 | 969.1 |
| 20260503195613 | 25 | 309 | 12.9 | 22.5 | 0.00 | 0.00 | 0.00 | 18 | 969.3 |
| 20260503194449 | 25 | 319 | 9.7 | 17.7 | 0.00 | 0.00 | 0.00 | 18 | 969.4 |
| 20260503193947 | 24 | 271 | 4.8 | 11.3 | 0.00 | 0.00 | 0.00 | 20 | 969.5 |
| 20260503193449 | 25 | 178 | 6.4 | 11.3 | 0.00 | 0.00 | 0.00 | 16 | 969.5 |
| 20260503192947 | 24 | 283 | 6.4 | 11.3 | 0.00 | 0.00 | 0.00 | 17 | 969.7 |
| 20260503192451 | 24 | 220 | 6.4 | 9.7 | 0.00 | 0.00 | 0.00 | 18 | 969.8 |
| 20260503191952 | 22 | 159 | 1.6 | 14.5 | 0.00 | 0.00 | 0.00 | 22 | 969.9 |
| 20260503191947 | 23 | 159 | 1.6 | 4.8 | 0.00 | 0.00 | 0.00 | 19 | 969.8 |
| 20260503190946 | 22 | 159 | 4.8 | 14.5 | 0.00 | 0.00 | 0.00 | 18 | 970.0 |
| 20260503190448 | 23 | 175 | 0.0 | 4.8 | 0.00 | 0.00 | 0.00 | 19 | 970.1 |
| 20260503185954 | 25 | 250 | 1.6 | 14.5 | 0.00 | 0.00 | 0.00 | 18 | 970.3 |
| 20260503185947 | 23 | 192 | 1.6 | 14.5 | 0.00 | 0.00 | 0.00 | 21 | 970.2 |
| 20260503184947 | 24 | 266 | 1.6 | 14.5 | 0.00 | 0.00 | 0.00 | 17 | 970.6 |
| 20260503184448 | 24 | 269 | 4.8 | 14.5 | 0.00 | 0.00 | 0.00 | 18 | 970.7 |
| 20260503183945 | 24 | 310 | 3.2 | 17.7 | 0.00 | 0.00 | 0.00 | 19 | 970.8 |
| 20260503183454 | 24 | 202 | 6.4 | 20.9 | 0.00 | 0.00 | 0.00 | 20 | 970.8 |
| 20260503183447 | 24 | 327 | 9.7 | 17.7 | 0.00 | 0.00 | 0.00 | 19 | 970.8 |
| 20260503183112 | 23 | 204 | 8.0 | 20.9 | 0.00 | 0.00 | 0.00 | 22 | 970.7 |
| 20260503181953 | 23 | 196 | 11.3 | 16.1 | 0.00 | 0.00 | 0.00 | 20 | 970.8 |
| 20260503181946 | 23 | 185 | 0.0 | 16.1 | 0.00 | 0.00 | 0.00 | 20 | 970.8 |
| 20260503180946 | 23 | 320 | 6.4 | 11.3 | 0.00 | 0.00 | 0.00 | 20 | 970.9 |
| 20260503180448 | 23 | 320 | 6.4 | 11.3 | 0.00 | 0.00 | 0.00 | 20 | 971.0 |
| 20260503175946 | 23 | 298 | 6.4 | 8.0 | 0.00 | 0.00 | 0.00 | 20 | 971.0 |
| 20260503175446 | 23 | 286 | 3.2 | 8.0 | 0.00 | 0.00 | 0.00 | 20 | 971.0 |
| 20260503174945 | 22 | 282 | 3.2 | 6.4 | 0.00 | 0.00 | 0.00 | 24 | 971.0 |
| 20260503174444 | 23 | 217 | 3.2 | 11.3 | 0.00 | 0.00 | 0.00 | 19 | 971.0 |
| 20260503173952 | 23 | 235 | 6.4 | 11.3 | 0.00 | 0.00 | 0.00 | 22 | 971.1 |
| 20260503173944 | 23 | 238 | 1.6 | 11.3 | 0.00 | 0.00 | 0.00 | 19 | 971.0 |
| 20260503172945 | 23 | 259 | 6.4 | 11.3 | 0.00 | 0.00 | 0.00 | 21 | 971.4 |
| 20260503172453 | 22 | 281 | 3.2 | 14.5 | 0.00 | 0.00 | 0.00 | 22 | 971.7 |
| 20260503172445 | 22 | 0 | 4.8 | 9.7 | 0.00 | 0.00 | 0.00 | 20 | 971.7 |
| 20260503172110 | 22 | 264 | 8.0 | 14.5 | 0.00 | 0.00 | 0.00 | 23 | 971.7 |
| 20260503170943 | 21 | 226 | 4.8 | 11.3 | 0.00 | 0.00 | 0.00 | 23 | 971.8 |
| 20260503170445 | 21 | 340 | 6.4 | 11.3 | 0.00 | 0.00 | 0.00 | 21 | 971.8 |
| 20260503150941 | 15 | 254 | 3.2 | 8.0 | 0.00 | 0.00 | 0.00 | 51 | 972.4 |
| 20260503150443 | 14 | 254 | 4.8 | 8.0 | 0.00 | 0.00 | 0.00 | 54 | 972.5 |
| 20260503130439 | 3 | 271 | 1.6 | 4.8 | 0.00 | 0.00 | 0.00 | 80 | 973.3 |
| 20260503110436 | 5 | 271 | 0.0 | 4.8 | 0.00 | 0.00 | 0.00 | 76 | 973.2 |
| 20260503090434 | 7 | 272 | 1.6 | 6.4 | 0.00 | 0.00 | 0.00 | 73 | 973.1 |
| 20260503081431 | 7 | 178 | 8.0 | 14.5 | 0.00 | 0.00 | 0.00 | 73 | 972.8 |
| 20260503080938 | 7 | 224 | 4.8 | 9.7 | 0.00 | 0.00 | 0.00 | 74 | 972.8 |
| 20260503080930 | 7 | 224 | 3.2 | 9.7 | 0.00 | 0.00 | 0.00 | 73 | 972.9 |
| 20260503072930 | 7 | 289 | 3.2 | 6.4 | 0.00 | 0.00 | 0.00 | 74 | 973.0 |
| 20260503072438 | 8 | 290 | 3.2 | 4.8 | 0.00 | 0.00 | 0.00 | 72 | 973.0 |
| 20260503072431 | 7 | 290 | 3.2 | 4.8 | 0.00 | 0.00 | 0.00 | 73 | 973.0 |
| 20260503071430 | 8 | 290 | 3.2 | 8.0 | 0.00 | 0.00 | 0.00 | 71 | 973.0 |
| 20260503070928 | 8 | 290 | 4.8 | 8.0 | 0.00 | 0.00 | 0.00 | 69 | 973.0 |
| 20260503070431 | 8 | 292 | 1.6 | 4.8 | 0.00 | 0.00 | 0.00 | 68 | 973.1 |
| 20260503054926 | 9 | 204 | 1.6 | 6.4 | 0.00 | 0.00 | 0.00 | 66 | 973.3 |
| 20260503054430 | 10 | 204 | 4.8 | 6.4 | 0.00 | 0.00 | 0.00 | 65 | 973.5 |
| 20260503053926 | 10 | 203 | 3.2 | 6.4 | 0.00 | 0.00 | 0.00 | 64 | 973.5 |
| 20260503053428 | 10 | 203 | 1.6 | 4.8 | 0.00 | 0.00 | 0.00 | 63 | 973.5 |
| 20260503052926 | 10 | 203 | 1.6 | 6.4 | 0.00 | 0.00 | 0.00 | 62 | 973.5 |
| 20260503052426 | 10 | 203 | 3.2 | 8.0 | 0.00 | 0.00 | 0.00 | 61 | 973.5 |
| 20260503051926 | 10 | 203 | 6.4 | 8.0 | 0.00 | 0.00 | 0.00 | 61 | 973.6 |
| 20260503051426 | 10 | 202 | 4.8 | 8.0 | 0.00 | 0.00 | 0.00 | 61 | 973.5 |
| 20260503050926 | 10 | 200 | 6.4 | 8.0 | 0.00 | 0.00 | 0.00 | 59 | 973.5 |
| 20260503050428 | 11 | 200 | 4.8 | 8.0 | 0.00 | 0.00 | 0.00 | 58 | 973.5 |
| 20260503045926 | 11 | 199 | 3.2 | 6.4 | 0.00 | 0.00 | 0.00 | 58 | 973.5 |
| 20260503045427 | 11 | 199 | 3.2 | 8.0 | 0.00 | 0.00 | 0.00 | 58 | 973.4 |
| 20260503044932 | 11 | 196 | 3.2 | 8.0 | 0.00 | 0.00 | 0.00 | 57 | 973.5 |
| 20260503044925 | 11 | 199 | 4.8 | 8.0 | 0.00 | 0.00 | 0.00 | 57 | 973.5 |
| 20260503043924 | 11 | 195 | 6.4 | 9.7 | 0.00 | 0.00 | 0.00 | 57 | 973.6 |
| 20260503043427 | 12 | 193 | 6.4 | 9.7 | 0.00 | 0.00 | 0.00 | 56 | 973.7 |
| 20260503042924 | 12 | 221 | 6.4 | 9.7 | 0.00 | 0.00 | 0.00 | 55 | 973.6 |
| 20260503042428 | 12 | 219 | 6.4 | 9.7 | 0.00 | 0.00 | 0.00 | 54 | 973.6 |
| 20260503041924 | 13 | 219 | 6.4 | 6.4 | 0.00 | 0.00 | 0.00 | 53 | 973.7 |
| 20260503041427 | 13 | 214 | 3.2 | 9.7 | 0.00 | 0.00 | 0.00 | 52 | 973.7 |
| 20260503040932 | 13 | 226 | 4.8 | 6.4 | 0.00 | 0.00 | 0.00 | 51 | 973.6 |
| 20260503040924 | 13 | 213 | 6.4 | 9.7 | 0.00 | 0.00 | 0.00 | 52 | 973.6 |
| 20260503035924 | 13 | 197 | 3.2 | 8.0 | 0.00 | 0.00 | 0.00 | 50 | 973.7 |
| 20260503035425 | 14 | 195 | 4.8 | 8.0 | 0.00 | 0.00 | 0.00 | 49 | 973.6 |
| 20260503034924 | 14 | 154 | 3.2 | 8.0 | 0.00 | 0.00 | 0.00 | 49 | 973.5 |
| 20260503034425 | 15 | 152 | 3.2 | 8.0 | 0.00 | 0.00 | 0.00 | 48 | 973.5 |
| 20260503033924 | 15 | 173 | 1.6 | 6.4 | 0.00 | 0.00 | 0.00 | 48 | 973.5 |
| 20260503033424 | 15 | 164 | 3.2 | 4.8 | 0.00 | 0.00 | 0.00 | 49 | 973.6 |
| 20260503032931 | 15 | 169 | 1.6 | 3.2 | 0.00 | 0.00 | 0.00 | 45 | 973.5 |
| 20260503032924 | 15 | 168 | 0.0 | 3.2 | 0.00 | 0.00 | 0.00 | 48 | 973.5 |
| 20260503031923 | 15 | 169 | 1.6 | 4.8 | 0.00 | 0.00 | 0.00 | 44 | 973.5 |
| 20260503031424 | 16 | 169 | 0.0 | 4.8 | 0.00 | 0.00 | 0.00 | 44 | 973.4 |
| 20260503030929 | 16 | 213 | 0.0 | 3.2 | 0.00 | 0.00 | 0.00 | 40 | 973.3 |
| 20260503030922 | 15 | 183 | 1.6 | 3.2 | 0.00 | 0.00 | 0.00 | 44 | 973.4 |
| 20260503025923 | 16 | 213 | 1.6 | 3.2 | 0.00 | 0.00 | 0.00 | 39 | 973.2 |
| 20260503025424 | 16 | 213 | 0.0 | 3.2 | 0.00 | 0.00 | 0.00 | 39 | 973.2 |
| 20260503024922 | 16 | 213 | 1.6 | 6.4 | 0.00 | 0.00 | 0.00 | 40 | 973.2 |
| 20260503024427 | 16 | 213 | 1.6 | 6.4 | 0.00 | 0.00 | 0.00 | 39 | 973.2 |
| 20260503023923 | 17 | 213 | 4.8 | 6.4 | 0.00 | 0.00 | 0.00 | 39 | 973.2 |
| 20260503023424 | 17 | 214 | 4.8 | 6.4 | 0.00 | 0.00 | 0.00 | 38 | 973.2 |
| 20260503022921 | 17 | 217 | 1.6 | 3.2 | 0.00 | 0.00 | 0.00 | 38 | 973.2 |
| 20260503022423 | 17 | 217 | 1.6 | 3.2 | 0.00 | 0.00 | 0.00 | 36 | 973.1 |
| 20260503021933 | 18 | 217 | 0.0 | 3.2 | 0.00 | 0.00 | 0.00 | 34 | 973.3 |
| 20260503021923 | 18 | 217 | 1.6 | 3.2 | 0.00 | 0.00 | 0.00 | 36 | 973.1 |
| 20260503020930 | 18 | 217 | 1.6 | 3.2 | 0.00 | 0.00 | 0.00 | 35 | 973.2 |
| 20260503020923 | 18 | 217 | 0.0 | 3.2 | 0.00 | 0.00 | 0.00 | 34 | 973.2 |
| 20260503015922 | 18 | 217 | 0.0 | 3.2 | 0.00 | 0.00 | 0.00 | 34 | 973.3 |
| 20260503015423 | 18 | 217 | 1.6 | 3.2 | 0.00 | 0.00 | 0.00 | 33 | 973.3 |
| 20260503014920 | 18 | 217 | 1.6 | 3.2 | 0.00 | 0.00 | 0.00 | 32 | 973.3 |
| 20260503014431 | 18 | 219 | 1.6 | 3.2 | 0.00 | 0.00 | 0.00 | 36 | 973.4 |
| 20260503014423 | 18 | 219 | 1.6 | 3.2 | 0.00 | 0.00 | 0.00 | 37 | 973.4 |
| 20260503013422 | 18 | 219 | 1.6 | 4.8 | 0.00 | 0.00 | 0.00 | 35 | 973.4 |
| 20260503012920 | 18 | 217 | 3.2 | 4.8 | 0.00 | 0.00 | 0.00 | 33 | 973.4 |
| 20260503012423 | 18 | 217 | 1.6 | 4.8 | 0.00 | 0.00 | 0.00 | 34 | 973.5 |
| 20260503011928 | 18 | 219 | 0.0 | 4.8 | 0.00 | 0.00 | 0.00 | 33 | 973.6 |
| 20260503011921 | 18 | 219 | 1.6 | 4.8 | 0.00 | 0.00 | 0.00 | 33 | 973.5 |
| 20260503010919 | 18 | 219 | 1.6 | 6.4 | 0.00 | 0.00 | 0.00 | 34 | 973.6 |
| 20260503010422 | 18 | 219 | 3.2 | 6.4 | 0.00 | 0.00 | 0.00 | 34 | 973.6 |
| 20260503005928 | 18 | 219 | 0.0 | 6.4 | 0.00 | 0.00 | 0.00 | 32 | 973.7 |
| 20260503005921 | 18 | 219 | 1.6 | 4.8 | 0.00 | 0.00 | 0.00 | 33 | 973.6 |
| 20260503004920 | 18 | 219 | 3.2 | 6.4 | 0.00 | 0.00 | 0.00 | 33 | 973.7 |
| 20260503004422 | 18 | 221 | 1.6 | 6.4 | 0.00 | 0.00 | 0.00 | 33 | 973.8 |
| 20260503003921 | 18 | 224 | 3.2 | 6.4 | 0.00 | 0.00 | 0.00 | 34 | 973.9 |
| 20260503003421 | 18 | 240 | 1.6 | 8.0 | 0.00 | 0.00 | 0.00 | 34 | 973.8 |
| 20260503002919 | 18 | 243 | 3.2 | 14.5 | 0.00 | 0.00 | 0.00 | 34 | 973.8 |
| 20260503002421 | 18 | 220 | 4.8 | 14.5 | 0.00 | 0.00 | 0.00 | 34 | 974.0 |
| 20260503001925 | 18 | 159 | 6.4 | 20.9 | 0.00 | 0.00 | 0.00 | 37 | 974.0 |
| 20260503001918 | 18 | 192 | 8.0 | 20.9 | 0.00 | 0.00 | 0.00 | 35 | 974.0 |
| 20260503001545 | 18 | 233 | 12.9 | 24.1 | 0.00 | 0.00 | 0.00 | 36 | 974.1 |